SPACEBEENZ-9 (48887 NORAD) Tracking and Keplerian Element Data

This shows tracking and keplerian element data for the satellite.

Feedback or suggestion? Click here.




ElementValue
Catalog48887
NameSPACEBEENZ-9
Epoch Orbit1675
Epoch Day287.66812146
Epoch Year2021
RAAN54.8251
Inclination97.5261
Eccentricity0.0007781
Argument of Perigee227.8176
Mean Anonmoly132.2394
Mean Motion15.12472163
Decay Rate4.178E-05
L11 48887U 21059J 21287.66812146 .00004178 00000-0 24378-3 0 9993
L22 48887 97.5261 54.8251 0007781 227.8176 132.2394 15.12472163 16753

Live tracking and technical data element details for SPACEBEENZ-9 (NORAD 48887). SPACEBEENZ-9 can be tracked NOW for your location showing map with azimuth and elevation plus other details from your city location.

Track the satellite on the map from your city or location and see movement details for azimuth, elevation, latitude, longitude, range, height, and movement on the map or in text.







IsCatalogInMostPopularTable: catalog: 48887, numindb: 19
Update: records affected: 1



GetName: 48887 SPACEBEENZ-9

Hit Count: updated at: Tue, 19 Oct 2021 08:14:33 GMT